Regional Weather Roundup
Issued by NWS Sterling, VA

Home | Current Version | Previous Version | Graphics & Text | Print | Product List | Glossary On
Versions: 1 2 3 4 5 6 7 8 9 10 11 12 13 14 15 16 17 18 19 20 21 22 23 24 25 26 27 28 29 30 31 32 33 34 35 36 37 38 39 40 41 42 43 44 45 46 47 48 49 50
270
ASUS41 KLWX 191310
RWRLWX

REGIONAL WEATHER ROUNDUP
NATIONAL WEATHER SERVICE BALTIMORE MD/WASHINGTON DC
900 AM EDT SAT AUG 19 2017

Note: "FAIR" indicates few or no clouds below 12,000 feet
with no significant weather and/or obstructions to visibility.
 TC=TEMPERATURE CELSIUS

 * =Non NWS site. Station does not report precipitation (e.g. rain,
    snow, etc.), thunder, or fog.

DCZ001-MDZ009-015-VAZ040>042-051-053>054-191400-
WASHINGTON METRO

CITY           SKY/WX    TMP DP  RH WIND       PRES   REMARKS
WASHINGTON NAT MOSUNNY   80  67  64 NW7       29.91R
DULLES         MOSUNNY   79  68  69 NW9       29.91R
ANDREWS AFB    SUNNY     78  66  65 NW7       29.90R
FT BELVOIR     SUNNY     80  67  65 NW3       29.91R
QUANTICO       MOSUNNY   81  70  69 NE3       29.92R
COLLEGE PARK*  MOSUNNY   77  68  73 CALM      29.90R
LEESBURG*      SUNNY     79  70  73 N5        29.93R
MANASSAS*      MOSUNNY   80  68  66 NW6       29.92R
GAITHERSBURG*  SUNNY     76  68  76 NW9       29.93R

$$

MDZ006>007-011-014-191400-
BALTIMORE METRO

CITY           SKY/WX    TMP DP  RH WIND       PRES   REMARKS
BWI AIRPORT    MOSUNNY   77  70  79 NW5       29.89R
MD SCIENCE CTR   N/A     80  68  66 MISG      29.92R
MARTIN STATE   MOSUNNY   77  73  88 NW6       29.90R
ANNAPOLIS      PTSUNNY   79  73  82 NW6       29.90R
FORT MEADE*    MOSUNNY   73  70  88 NW3       29.93R

$$

MDZ012-015-019>023-191400-
MARYLAND EASTERN SHORE

CITY           SKY/WX    TMP DP  RH WIND       PRES   REMARKS
OCEAN CITY     CLOUDY    77  75  93 NW3       29.90R
SALISBURY      CLOUDY    78  76  93 W6        29.89R
BAY BRIDGE AP* MOSUNNY   79  70  73 NW7       29.89R
CAMBRIDGE*     MOSUNNY   81  72  74 NW6       29.90R

$$

MDZ017>025-191400-
SOUTHERN MARYLAND

CITY           SKY/WX    TMP DP  RH WIND       PRES   REMARKS
PATUXENT RIVER PTSUNNY   78  72  81 NW8       29.90R
ST INIGOES     MOSUNNY   79  72  79 VRB3      29.89S
LEONARDTOWN*   PTSUNNY   75  70  83 CALM      29.92S

$$

MDZ003>005-191400-
NORTH CENTRAL MARYLAND

CITY           SKY/WX    TMP DP  RH WIND       PRES   REMARKS
FREDERICK*     SUNNY     79  66  65 W8        29.94R
HAGERSTOWN APT SUNNY     76  66  71 SW6       29.93R
WESTMINSTER*   SUNNY     73  68  83 CALM      29.92R

$$

MDZ501>502-191400-
WESTERN MARYLAND

CITY           SKY/WX    TMP DP  RH WIND       PRES   REMARKS
OAKLAND*       SUNNY     64  61  88 W10G16    30.01S
CUMBERLAND*    SUNNY     72  66  83 CALM      29.99R

$$

VAZ025>031-191400-
SHENANDOAH VALLEY

CITY           SKY/WX    TMP DP  RH WIND       PRES   REMARKS
WINCHESTER*    SUNNY     73  66  78 SW3       29.94R
FRONT ROYAL*   SUNNY     73  70  88 SW5       29.93S
LURAY*         SUNNY     72  70  94 CALM      29.96S
NEW MARKET*    SUNNY     72  66  81 CALM      29.95F
STAUNTON*      SUNNY     72  65  81 CALM      30.00R
WAYNESBORO*    SUNNY     74  66  76 W3        29.99S

$$

WVZ021-048>050-054>055-191400-
EASTERN WEST VIRGINIA PANHANDLE

CITY           SKY/WX    TMP DP  RH WIND       PRES   REMARKS
MARTINSBURG    SUNNY     76  66  71 SW5       29.92R
PETERSBURG*    SUNNY     72  67  84 CALM      29.97S

$$

VAZ036>039-050-191400-
CENTRAL FOOTHILLS

CITY           SKY/WX    TMP DP  RH WIND       PRES   REMARKS
CHARLOTTESVILL SUNNY     79  69  71 CALM      29.94R
CULPEPER*      MOSUNNY   79  71  78 CALM      29.93S
ORANGE*        MOSUNNY   77  70  78 CALM      29.93R
GORDONSVILLE*  SUNNY     79  71  75 CALM      29.92S
WARRENTON*     MOSUNNY   79  67  66 CALM      29.92R

$$

VAZ055>057-191400-
NORTH AND CENTRAL PIEDMONT

CITY           SKY/WX    TMP DP  RH WIND       PRES   REMARKS
FREDERICKSBRG* MOSUNNY   80  68  68 N6        29.90S
STAFFORD*      PTSUNNY   79  71  78 NW3       29.95S

$$

NCZ024-NYZ072-PAZ021-071-VAZ022-071-191400-
OTHER REGIONAL OBSERVATIONS

CITY           SKY/WX    TMP DP  RH WIND       PRES   REMARKS
NEW YORK CITY  SUNNY     77  69  76 CALM      29.88R
PHILADELPHIA   MOSUNNY   79  68  69 NW10      29.87R
PITTSBURGH     CLOUDY    71  66  84 W6        29.94S
ROANOKE        MOSUNNY   74  66  76 W9        30.01S
RICHMOND       MOSUNNY   81  75  82 CALM      29.92R
RALEIGH        MOSUNNY   80  73  79 NW5       29.96R

$$

ANZ530>537-191400-
MARINE OBSERVATIONS

STATION/POSITION TIME  TEMP    WIND        PRES
                       AIR SEA DIR/SP/G
                 (UTC) (F)     (DEG/KT/KT) (MB)
THOMAS PT LIGHT  1300   76 80  320/  7/  8   N/A
BALT KEY BRIDGE  1242   78     310/  8/ 10 1011.9R
COVE POINT       1242   78     330/  8/ 11 1013.3R
LEWISETTA        1242   78 82   10/  1/  3 1012.3R
SOLOMONS ISLAND  1242   78 81  330/  5/ 10   N/A
PINEY POINT      1242          360/ 10/ 12   N/A

$$





USA.gov is the U.S. government's official web portal to all federal, state and local government web resources and services.